Temperature
16 16 16 16 16 16 16 16 16 16 16 16 15 15 15 15 15 15 15 15 15 15 15 16 16 15 16 16 16 16 16 16 16 16 16 16 16 16 16 16 16 16 16
16 16 16 16 16 16 16 16 16 16 15 15 15 15 15 15 15 15 15 15 15 15 15 15 15 15 15 15 15 15 15 15 15 15 15 15 16 16 16 16 16 16 16
16 16 16 16 16 16 16 15 16 15 15 15 15 15 15 15 15 15 15 15 15 15 15 15 15 15 15 15 15 15 15 15 15 15 15 15 15 15 15 15 15 15 15
16 16 16 16 16 16 16 15 15 15 15 15 15 15 15 15 15 15 15 15 15 15 15 15 15 15 15 14 14 14 14 14 15 15 15 15 15 15 15 15 15 15 15
16 16 16 16 16 16 15 15 15 15 15 15 15 15 15 15 15 15 15 14 14 14 14 14 14 14 14 14 14 14 14 14 14 14 14 15 15 15 15 15 15 15 15
16 16 16 16 16 15 15 15 15 15 15 15 15 15 15 15 15 15 14 14 14 14 14 14 14 14 14 14 14 14 14 14 14 14 14 14 14 14 15 15 15 15 15
16 16 16 16 16 15 15 15 15 15 15 15 15 15 15 15 15 15 14 14 14 14 14 14 14 14 14 14 14 14 14 14 14 14 14 14 14 14 14 14 14 14 14
16 16 16 16 15 15 15 15 15 15 15 15 15 15 15 14 14 14 14 14 14 14 13 13 13 13 14 14 14 14 14 14 14 14 14 14 14 14 14 14 14 14 14
16 16 16 15 15 15 15 15 15 15 15 15 15 15 15 14 14 14 14 14 14 14 13 13 13 13 13 13 14 14 14 14 14 13 13 13 13 13 13 13 14 14 13
16 15 15 15 15 15 15 15 15 15 15 15 15 15 15 15 15 14 14 14 14 14 13 13 13 13 13 13 13 13 13 14 14 13 13 13 13 13 13 13 13 13 13
15 15 15 15 15 15 15 15 15 15 15 15 15 15 15 15 15 15 14 14 14 14 14 13 13 13 13 13 13 13 13 13 13 13 13 13 13 13 13 13 12 13 13
16 16 15 15 15 15 15 15 15 15 15 15 15 15 15 15 15 15 14 14 14 14 14 13 13 13 13 13 13 13 13 13 13 13 13 13 12 12 12 12 12 12 12
16 15 15 16 15 15 15 15 15 15 15 15 15 15 15 15 14 14 14 14 14 14 14 13 13 13 13 13 13 13 13 13 13 13 13 13 12 12 12 12 12 12 12
16 16 15 16 15 15 15 15 15 15 15 15 15 15 14 14 14 14 14 14 14 14 13 13 13 13 13 13 13 13 13 13 13 12 12 12 12 12 12 12 12 11 11
16 16 16 16 15 15 15 15 15 15 15 15 15 14 14 14 14 14 14 14 14 14 13 13 13 13 12 12 12 12 12 12 12 12 12 12 12 12 12 12 12 11 11
16 16 16 16 15 15 15 15 15 15 15 15 15 14 14 14 14 14 14 14 14 14 13 13 13 12 12 12 12 12 12 12 12 12 12 12 12 11 11 11 11 11 11
16 16 16 15 15 15 15 15 15 15 15 15 14 14 14 14 14 14 14 14 14 14 13 13 13 12 12 12 12 12 12 12 12 11 11 11 11 11 11 11 11 11 11
16 16 16 15 15 15 15 15 15 15 14 15 14 14 14 14 14 14 14 14 13 13 13 13 13 12 12 12 12 11 11 11 11 11 11 11 11 11 10 10 10 10 10
16 16 15 15 15 15 15 15 15 14 14 14 14 14 14 14 14 14 14 13 13 13 13 13 12 12 12 12 11 11 11 11 11 10 10 10 10 10 10 10 10 9 9
15 15 15 15 15 15 15 15 15 14 14 14 14 14 14 14 14 14 14 13 13 13 12 12 12 12 12 11 11 11 11 11 10 10 10 10 10 9 9 9 9 9 9
15 15 15 15 15 15 15 15 14 14 14 14 14 14 14 14 13 13 13 13 13 13 12 12 12 11 11 11 11 11 11 10 10 10 10 9 9 9 9 9 9 8 8
15 15 15 15 15 15 15 14 14 14 14 14 14 14 14 13 13 13 13 13 13 12 12 12 11 11 11 11 11 10 10 10 9 10 9 9 9 9 8 8 8 8 8
15 15 15 15 15 14 14 14 14 14 14 14 13 13 13 13 13 13 13 13 12 12 12 12 11 11 11 11 10 10 10 10 9 9 9 9 8 8 8 8 7 7 7
15 15 14 14 14 14 14 14 14 14 14 14 13 13 13 13 13 12 12 12 12 12 12 11 11 11 11 10 10 10 10 9 9 9 8 8 8 8 8 7 7 7 6
14 14 14 14 14 14 14 14 14 14 14 13 13 13 13 13 12 12 12 12 12 11 11 11 11 11 10 10 10 10 9 9 9 8 8 8 7 7 7 7 7 6 6
14 14 14 14 14 14 14 14 14 14 13 13 13 13 12 12 12 12 12 11 11 11 11 10 10 10 10 10 10 9 9 8 8 7 7 7 7 6 6 6 6 6 5
Wind_Speed
3 3 4 4 4 5 4 4 5 6 6 7 8 9 7 9 10 10 10 12 12 12 12 12 11 10 11 11 12 12 12 12 11 11 11 11 10 10 9 8 9 9 8
4 3 4 4 4 5 5 6 6 5 6 6 6 8 7 8 8 9 9 10 11 11 11 11 11 10 11 11 12 12 12 12 12 12 11 11 10 10 10 9 9 9 9
6 5 4 4 4 6 7 6 6 5 4 5 6 6 6 7 7 7 7 8 9 10 11 12 12 12 12 12 13 13 13 13 13 13 12 12 11 11 11 11 11 10 10
9 6 3 3 5 6 5 3 3 3 4 4 4 4 4 5 6 6 7 7 8 8 10 12 13 13 13 13 13 14 14 13 13 14 14 13 12 12 11 11 11 10 10
8 6 3 3 6 4 3 4 4 4 4 3 3 3 4 4 4 6 6 7 8 8 8 10 12 13 14 14 14 14 14 13 13 13 13 13 13 12 11 11 11 10 11
7 6 3 4 5 4 3 4 3 3 2 2 3 4 3 3 4 5 5 7 8 8 9 9 9 10 13 14 14 14 14 14 13 13 13 13 13 12 12 11 11 11 10
6 5 3 4 4 3 3 4 3 2 2 2 2 2 2 3 3 3 4 4 6 7 8 9 9 9 9 11 13 13 13 13 13 13 13 13 12 12 11 11 11 11 10
5 4 3 3 3 3 4 4 3 2 1 1 1 1 1 2 2 2 2 3 4 6 7 8 9 9 9 9 11 12 12 12 12 12 12 12 13 12 12 12 12 11 10
5 5 4 3 3 3 3 3 2 2 1 1 1 1 1 1 1 2 2 3 3 3 4 7 9 10 10 10 10 11 12 12 11 11 11 11 11 11 11 12 12 12 11
4 3 3 3 3 3 3 2 2 1 1 1 1 2 2 2 1 1 1 2 3 3 4 5 7 9 10 10 10 10 11 11 11 11 11 11 10 11 11 11 12 12 11
3 2 3 3 2 3 3 3 3 2 1 1 1 1 2 2 1 2 1 1 1 2 3 4 5 7 9 9 9 9 9 10 10 10 10 10 11 11 11 11 11 11 11
1 1 3 2 2 2 2 2 3 3 2 2 2 2 2 1 1 1 1 1 1 1 2 3 4 5 7 8 8 8 8 8 8 8 9 9 10 10 10 11 11 11 11
2 2 2 2 2 2 3 3 2 2 2 2 2 2 2 1 1 1 2 1 1 1 2 2 3 4 6 7 6 6 7 7 7 7 8 8 9 9 9 10 10 10 10
2 3 3 3 3 3 3 3 2 1 2 2 2 2 1 1 1 2 1 2 1 1 2 2 2 4 5 6 6 6 5 6 6 7 7 7 7 8 8 9 9 9 10
3 3 3 3 4 3 3 3 2 2 2 2 2 2 1 1 1 1 1 2 2 1 1 1 1 2 4 6 5 5 6 5 6 6 7 7 7 7 7 7 8 8 8
3 3 3 4 4 3 3 3 2 2 2 2 2 2 2 1 1 1 1 1 1 2 1 0 1 1 3 4 4 6 6 6 6 6 6 6 7 7 7 7 8 8 8
3 3 3 3 3 4 4 3 2 2 2 1 2 2 2 2 1 1 1 2 2 2 2 1 1 2 2 2 2 3 5 6 6 5 6 6 6 7 8 8 9 9 9
2 2 2 2 2 3 3 4 3 2 2 1 1 2 2 2 2 2 2 1 1 2 2 1 1 2 2 2 2 1 3 4 5 5 5 6 6 7 8 8 9 9 10
2 2 2 2 2 2 2 2 3 2 2 2 2 2 2 3 2 2 2 2 1 2 2 2 1 1 2 2 2 2 3 2 3 5 5 5 5 6 7 7 8 9 9
2 2 2 2 3 2 2 2 2 2 2 2 3 3 3 4 2 2 2 1 1 2 2 2 1 1 1 1 2 2 2 1 2 3 4 4 4 5 6 7 7 8 9
2 2 2 2 2 2 2 2 2 2 2 2 3 4 5 7 7 4 3 2 2 2 2 2 1 1 1 2 1 1 1 1 1 2 2 2 3 3 4 5 5 6 7
2 2 2 2 2 2 4 4 3 1 2 2 2 3 3 5 6 6 7 7 6 4 2 2 1 1 1 0 1 1 0 1 1 1 1 1 2 2 2 4 4 5 5
2 2 2 2 2 2 4 3 3 2 1 1 2 2 2 3 4 3 3 4 5 5 4 3 2 1 0 1 0 1 1 0 1 0 2 1 1 1 1 3 3 3 4
3 3 2 2 2 2 4 3 3 2 0 1 1 2 2 2 2 3 4 3 2 2 2 2 2 1 2 2 1 1 1 0 1 2 3 0 1 1 1 2 2 2 2
3 4 3 3 3 3 4 4 4 2 1 0 1 2 2 2 4 5 4 2 2 1 2 3 3 2 4 5 5 3 2 2 1 1 1 1 1 1 1 0 1 1 2
3 4 3 3 4 3 4 6 6 3 2 2 1 1 3 3 4 5 3 2 1 1 2 2 1 1 1 3 4 2 1 1 0 1 1 1 0 1 1 1 1 2 2
Wind_Direction
74 90 101 97 88 91 91 74 64 62 58 56 62 64 65 70 78 79 77 73 69 64 60 56 55 54 57 58 58 58 56 56 56 56 53 53 53 54 56 57 56 54 53
82 67 82 81 81 78 79 80 74 66 66 60 58 60 57 65 75 85 92 81 74 69 63 58 57 62 64 65 62 60 58 56 55 53 52 54 54 56 56 58 60 54 54
85 79 78 80 76 76 74 71 75 72 75 70 62 58 57 62 70 73 86 97 89 77 70 64 64 66 69 68 65 62 60 58 55 52 51 54 58 59 57 56 57 55 53
87 75 67 76 78 74 78 79 62 68 68 62 60 55 58 56 64 69 75 82 89 88 80 72 70 69 69 68 66 63 60 58 56 53 50 52 57 57 56 57 55 53 52
83 86 73 73 81 79 71 75 61 64 75 73 84 76 61 51 45 55 57 67 77 82 89 82 75 71 68 68 65 62 60 58 57 54 52 52 53 53 55 56 55 55 54
70 87 97 81 77 77 75 82 86 78 88 84 79 82 82 84 54 48 43 56 67 73 83 90 84 74 69 67 64 61 58 57 57 56 53 52 52 53 55 57 56 56 55
67 78 77 77 76 77 78 86 73 77 69 75 78 70 65 79 69 62 51 53 55 62 78 86 84 80 75 67 60 60 58 55 55 54 52 52 53 52 53 55 54 54 53
60 79 100 101 96 90 72 75 75 44 38 59 75 81 74 42 15 70 65 62 66 60 60 77 82 82 81 75 64 60 55 54 53 52 52 52 51 51 52 53 52 50 51
48 46 65 100 118 122 111 103 99 93 37 349 43 72 87 98 338 34 66 69 65 65 62 70 74 76 77 76 75 63 55 49 50 50 50 51 51 52 52 51 49 48 52
68 41 55 79 103 108 113 125 113 93 82 7 359 31 64 110 131 54 15 57 69 70 68 67 67 74 77 78 77 70 60 50 46 47 48 48 48 50 50 49 48 49 54
75 51 61 63 83 106 114 104 97 79 82 52 32 28 30 22 28 119 92 31 58 67 83 81 76 83 87 86 84 75 65 54 47 46 45 45 44 44 44 45 46 48 52
109 98 93 88 84 93 103 102 104 101 76 50 42 46 66 58 5 54 99 117 108 120 95 89 83 84 91 90 85 81 70 58 50 47 45 42 41 41 42 43 44 45 48
143 156 126 119 103 95 94 91 101 107 109 91 69 45 49 50 32 42 84 69 60 131 96 78 93 92 95 96 97 90 75 63 54 50 47 46 45 44 44 43 43 42 42
147 140 141 133 113 102 102 98 87 88 99 101 99 90 65 40 40 66 103 96 48 27 80 98 84 97 102 105 110 104 89 75 64 57 55 52 50 48 47 46 43 40 38
142 139 140 129 123 116 108 106 101 97 72 70 79 78 86 79 59 41 62 109 132 99 31 85 93 100 113 106 113 115 104 88 75 66 61 55 52 50 47 45 43 40 37
140 150 160 144 137 131 115 100 86 94 92 91 89 64 50 78 68 51 33 26 85 129 119 56 118 127 95 102 105 118 116 102 90 80 72 65 60 55 51 48 45 44 41
163 165 160 150 151 146 133 124 130 122 128 130 120 109 81 72 61 40 44 42 44 86 113 11 55 91 92 79 88 121 125 116 109 96 84 77 72 64 58 56 53 49 45
168 158 142 136 139 135 139 145 148 142 135 115 96 93 98 82 61 59 60 52 64 91 116 101 27 44 60 78 76 58 95 110 117 112 106 97 90 80 70 63 58 53 50
161 144 125 122 109 109 123 140 147 140 125 112 102 83 78 88 72 56 53 49 59 75 94 112 64 35 37 44 49 31 54 67 106 111 111 108 103 96 85 74 62 55 49
155 153 138 133 122 116 112 111 111 111 102 94 90 81 66 71 70 69 66 51 78 81 86 104 102 45 33 15 51 23 7 6 50 65 74 100 99 101 93 80 66 55 46
151 135 126 121 114 113 80 80 97 114 102 89 85 90 86 81 71 64 62 48 54 76 88 96 103 63 35 35 356 306 334 327 46 50 57 83 97 95 104 85 65 52 45
125 106 117 115 104 105 94 88 80 85 118 135 132 127 123 106 99 87 76 71 72 74 78 94 91 91 19 328 311 328 357 18 331 358 51 2 85 92 107 114 83 63 45
142 146 144 124 123 120 119 106 96 82 106 156 148 143 127 127 130 139 108 84 65 60 72 101 84 48 311 308 318 325 323 305 209 256 76 355 34 51 58 128 112 75 44
158 156 151 147 138 135 143 136 133 130 342 46 95 119 129 141 130 135 131 116 103 75 88 96 116 72 34 17 55 201 236 4 87 53 69 45 351 345 337 151 133 57 25
166 160 166 161 165 175 168 162 144 147 161 122 80 85 102 109 106 120 122 129 135 155 120 123 128 98 52 40 41 48 38 52 338 318 38 81 319 334 320 112 21 330 330
161 157 161 168 173 180 172 171 162 164 176 174 136 95 91 103 110 129 134 144 169 188 136 125 109 55 30 27 35 50 114 110 295 292 308 100 318 19 338 318 329 315 323
Height
1548 1548 1547 1547 1547 1548 1548 1548 1548 1548 1548 1549 1548 1548 1548 1548 1547 1547 1546 1546 1546 1545 1545 1544 1544 1544 1543 1543 1543 1542 1542 1542 1541 1541 1541 1541 1540 1540 1540 1540 1541 1540 1540
1549 1549 1549 1549 1549 1549 1549 1549 1549 1549 1550 1550 1549 1549 1549 1549 1549 1548 1547 1547 1547 1546 1546 1545 1544 1544 1544 1544 1544 1543 1543 1543 1542 1542 1541 1541 1540 1540 1540 1540 1540 1540 1540
1550 1550 1550 1550 1550 1551 1550 1550 1550 1551 1551 1551 1551 1551 1550 1550 1550 1549 1549 1548 1548 1547 1547 1546 1545 1545 1545 1545 1545 1544 1544 1544 1543 1542 1541 1540 1540 1540 1540 1540 1540 1539 1539
1551 1551 1551 1551 1551 1552 1551 1552 1552 1552 1552 1552 1552 1552 1552 1552 1551 1551 1550 1550 1550 1549 1548 1547 1547 1546 1546 1546 1546 1546 1545 1545 1544 1543 1542 1541 1540 1540 1540 1540 1539 1539 1538
1552 1552 1552 1552 1552 1552 1552 1553 1553 1553 1553 1553 1554 1553 1553 1553 1553 1553 1552 1552 1551 1550 1549 1549 1548 1548 1547 1547 1547 1547 1546 1545 1545 1544 1543 1542 1541 1541 1540 1540 1539 1539 1538
1553 1553 1553 1553 1553 1553 1553 1554 1554 1554 1555 1555 1555 1555 1555 1555 1554 1554 1553 1553 1553 1552 1551 1550 1550 1549 1549 1548 1548 1548 1547 1546 1546 1545 1544 1543 1542 1541 1540 1540 1539 1538 1538
1553 1553 1554 1554 1554 1554 1554 1554 1555 1555 1556 1556 1556 1556 1556 1556 1556 1555 1555 1554 1554 1554 1553 1552 1551 1551 1550 1550 1549 1549 1548 1548 1547 1546 1545 1544 1543 1542 1541 1540 1539 1538 1537
1553 1554 1554 1554 1554 1554 1555 1555 1555 1556 1556 1557 1557 1557 1557 1559 1557 1557 1556 1556 1556 1555 1554 1554 1553 1552 1551 1551 1550 1550 1549 1549 1548 1547 1546 1545 1544 1542 1541 1540 1538 1536 1535
1554 1554 1554 1555 1555 1555 1555 1555 1556 1556 1557 1557 1557 1558 1558 1558 1558 1559 1558 1558 1557 1557 1556 1555 1554 1554 1553 1552 1552 1551 1550 1550 1549 1548 1547 1545 1544 1543 1542 1540 1537 1535 1533
1554 1554 1555 1555 1555 1556 1556 1556 1556 1556 1557 1558 1558 1558 1559 1558 1559 1559 1560 1559 1558 1558 1557 1556 1555 1555 1554 1553 1553 1552 1551 1551 1549 1548 1547 1546 1545 1544 1542 1540 1537 1534 1532
1554 1554 1555 1555 1555 1556 1556 1556 1556 1557 1557 1557 1558 1558 1558 1558 1559 1559 1559 1560 1559 1558 1558 1557 1556 1556 1555 1554 1553 1553 1552 1551 1550 1549 1548 1547 1545 1544 1543 1541 1538 1536 1534
1553 1554 1554 1555 1555 1555 1556 1557 1557 1557 1557 1557 1557 1558 1558 1558 1558 1559 1558 1559 1559 1559 1558 1558 1557 1556 1556 1555 1554 1554 1553 1552 1551 1550 1548 1547 1546 1545 1543 1542 1540 1538 1536
1553 1554 1554 1555 1555 1556 1556 1556 1557 1557 1557 1557 1557 1558 1558 1558 1558 1558 1558 1558 1559 1559 1559 1559 1558 1557 1556 1556 1555 1554 1553 1552 1551 1550 1549 1547 1546 1545 1543 1542 1541 1539 1538
1553 1554 1554 1555 1555 1556 1556 1556 1557 1557 1557 1557 1557 1557 1558 1558 1558 1558 1559 1559 1559 1559 1559 1559 1558 1558 1557 1556 1555 1555 1554 1552 1551 1550 1549 1548 1546 1545 1544 1542 1541 1540 1539
1553 1554 1554 1554 1555 1555 1556 1556 1556 1557 1557 1557 1557 1557 1557 1558 1558 1558 1558 1559 1559 1559 1559 1559 1559 1558 1557 1557 1556 1555 1554 1553 1552 1550 1549 1548 1546 1545 1544 1543 1541 1540 1539
1553 1554 1554 1554 1554 1555 1555 1556 1556 1556 1557 1557 1557 1557 1557 1557 1557 1557 1558 1558 1558 1558 1558 1559 1558 1558 1558 1557 1556 1554 1553 1553 1551 1550 1549 1547 1546 1545 1544 1542 1541 1540 1539
1552 1553 1553 1554 1554 1554 1555 1555 1555 1556 1556 1556 1557 1557 1557 1557 1557 1557 1557 1557 1557 1558 1558 1558 1558 1558 1557 1556 1555 1554 1553 1552 1551 1550 1549 1547 1546 1545 1543 1542 1541 1540 1539
1551 1552 1552 1553 1553 1554 1554 1554 1555 1555 1555 1556 1556 1556 1556 1556 1556 1556 1556 1556 1557 1557 1557 1556 1557 1557 1556 1555 1555 1554 1553 1552 1551 1549 1548 1547 1546 1544 1543 1542 1541 1539 1538
1550 1550 1551 1552 1552 1552 1553 1554 1554 1554 1555 1555 1555 1555 1555 1555 1555 1555 1555 1555 1555 1555 1555 1555 1555 1555 1555 1554 1553 1553 1552 1551 1550 1549 1548 1547 1545 1544 1542 1541 1540 1539 1537
1548 1548 1549 1550 1551 1551 1552 1552 1553 1553 1554 1554 1554 1554 1554 1554 1553 1554 1554 1554 1554 1554 1554 1554 1554 1553 1553 1553 1552 1551 1550 1550 1549 1548 1547 1546 1544 1543 1541 1540 1539 1538 1536
1546 1547 1547 1548 1549 1549 1550 1551 1551 1552 1552 1552 1553 1553 1552 1552 1552 1552 1552 1552 1552 1552 1552 1552 1552 1552 1551 1551 1550 1549 1549 1548 1547 1547 1546 1545 1543 1542 1540 1539 1538 1536 1534
1543 1545 1545 1546 1547 1547 1548 1549 1550 1550 1550 1551 1551 1551 1551 1551 1551 1551 1551 1551 1551 1551 1551 1551 1550 1550 1549 1549 1549 1548 1547 1546 1545 1545 1544 1543 1542 1540 1539 1538 1537 1535 1533
1541 1542 1543 1544 1545 1546 1546 1547 1548 1548 1548 1549 1549 1549 1549 1549 1549 1549 1549 1549 1549 1549 1549 1549 1548 1548 1548 1547 1546 1546 1545 1544 1543 1543 1542 1541 1540 1539 1537 1536 1535 1533 1531
1539 1540 1541 1542 1543 1543 1544 1545 1545 1546 1546 1547 1547 1547 1547 1547 1547 1547 1547 1547 1547 1547 1547 1547 1547 1546 1546 1545 1544 1544 1543 1542 1542 1541 1540 1539 1537 1536 1536 1535 1533 1531 1530
1536 1537 1538 1539 1540 1541 1542 1542 1543 1543 1544 1544 1545 1545 1545 1545 1545 1545 1545 1545 1545 1545 1545 1545 1545 1544 1543 1543 1542 1542 1541 1540 1539 1538 1538 1537 1535 1534 1533 1532 1531 1530 1528
1533 1534 1535 1536 1537 1538 1539 1540 1540 1541 1541 1542 1542 1542 1543 1543 1543 1543 1543 1543 1543 1543 1543 1543 1542 1542 1541 1540 1540 1539 1539 1538 1537 1536 1536 1535 1533 1532 1530 1530 1528 1527 1525